Regional Weather Roundup
Issued by NWS

Home | Current Version | Previous Version | Text Only | Print | Product List | Glossary On
Versions: 1 2 3 4 5 6 7 8 9 10 11 12 13 14 15 16 17 18 19 20 21 22 23 24 25 26 27 28 29 30 31 32 33 34 35 36 37 38 39 40 41 42 43 44 45 46 47 48 49 50
000
ASUS43 KMKX 112120
RWRWI

WISCONSIN REGIONAL WEATHER ROUNDUP
NATIONAL WEATHER SERVICE MILWAUKEE/SULLIVAN WI
300 PM CST MON DEC 11 2017

NOTE: "FAIR" INDICATES FEW OR NO CLOUDS BELOW 12,000 FEET WITH NO
SIGNIFICANT WEATHER AND/OR OBSTRUCTIONS TO VISIBILITY.

WIZ001-002-006>008-014>016-023>028-112200-
NORTHWEST WISCONSIN

CITY           SKY/WX    TMP DP  RH WIND       PRES   REMARKS
SUPERIOR ARPT  CLOUDY    26  16  65 N12       29.96R WCI  16
ASHLAND        CLOUDY    25  16  68 NW15G25   29.89R WCI  13
HAYWARD        CLOUDY    27  19  72 N8G17     29.86R WCI  19
SIREN          CLOUDY    28  20  72 N17G26    29.92R WCI  15
CUMBERLAND     CLOUDY    28  23  80 N21G28    29.86R WCI  15
RICE LAKE      CLOUDY    30  25  81 NW17G26   29.87R WCI  18
CHETEK         CLOUDY    29  25  82 N7        29.85R WCI  22
LADYSMITH      CLOUDY    29  25  85 NW10G21   29.83R WCI  19
EAU CLAIRE     CLOUDY    31  24  75 N15G24    29.83R WCI  20
MENOMONIE      CLOUDY    32  26  78 NW14G22   29.85R WCI  22
NEW RICHMOND   CLOUDY    31  25  77 N16G29    29.90R WCI  20
OSCEOLA        CLOUDY    32  25  76 NW16G24   29.94R WCI  21
$$

WIZ003>005-009-010-017-018-112200-
NORTH CENTRAL WISCONSIN

CITY           SKY/WX    TMP DP  RH WIND       PRES   REMARKS
MANITOWISH WTR CLOUDY    24  24 100 NW13G24   29.74R WCI  12
ARBOR VITAE    CLOUDY    26  24  92 NW15G22   29.73R WCI  13
WOODRUFF       CLOUDY    26  24  92 NW15G22   29.73R WCI  13
RHINELANDER    CLOUDY    25  23  92 NW10      29.72R WCI  15
EAGLE RIVER    CLOUDY    24  23  96 NW12G18   29.71R WCI  13
LAND O LAKES   CLOUDY    24  23  94 NW8       29.72R FOG     WCI  16
PHILLIPS       CLOUDY    25  24  95 NW7G18    29.77R WCI  17
TOMAHAWK       CLOUDY    25  22  91 NW8G17    29.75R WCI  16
MEDFORD        CLOUDY    26  22  87 N14       29.75R WCI  14
MERRILL        CLOUDY    26  24  93 NW5       29.75R WCI  20
$$

WIZ029-030-035-036-043>047-112200-
CENTRAL WISCONSIN

CITY           SKY/WX    TMP DP  RH WIND       PRES   REMARKS
WAUSAU         CLOUDY    26  23  88 NW9       29.73R FOG     WCI  17
MOSINEE        CLOUDY    27  25  93 NW8       29.75R FOG     WCI  18
MARSHFIELD     CLOUDY    28  24  85 NW14      29.74R WCI  17
STEVENS POINT  LGT SNOW  26  25  94 NW6       29.75R WCI  20
WAUPACA        CLOUDY    31  26  80 NW6       29.74R WCI  25
WAUTOMA        CLOUDY    31  25  78 NW6       29.74R WCI  25
WISC RAPIDS    CLOUDY    30  25  81 N10       29.76R WCI  21
CAMP DOUGLAS   CLOUDY    32  27  80 NW13      29.75R WCI  22
$$

WIZ011>013-019>022-031-037>040-048>050-112200-
NORTHEAST WISCONSIN

CITY           SKY/WX    TMP DP  RH WIND       PRES   REMARKS
ANTIGO         CLOUDY    23  22  98 NW9       29.71R FOG     WCI  13
SHAWANO        CLOUDY    28  25  87 NW5       29.74R WCI  23
OCONTO         CLOUDY    26  23  90 NW3       29.74S
STURGEON BAY   FLURRIES  26  24  92 W7        29.73R WCI  18
GREEN BAY      LGT SNOW  29  25  85 NW9       29.74R FOG     WCI  20
MANITOWOC      CLOUDY    29  24  82 W7        29.73R WCI  22
APPLETON       CLOUDY    28  21  74 NW9       29.71R WCI  20
CLINTONVILLE   CLOUDY    27  23  86 NW7       29.74R WCI  19
OSHKOSH        CLOUDY    31  24  75 NW8       29.72R WCI  23
$$

WIZ032>034-041-042-053>061-112200-
SOUTHWEST WISCONSIN

CITY           SKY/WX    TMP DP  RH WIND       PRES   REMARKS
LA CROSSE      CLOUDY    32  27  81 NW10      29.81R WCI  24
SPARTA         CLOUDY    31  28  85 NW7       29.79R WCI  25
VIROQUA        CLOUDY    31  30  98 NW13      29.75R WCI  21
BOSCOBEL       CLOUDY    33  28  81 NW6       29.78R WCI  28
PRAIRIE DU CHI CLOUDY    32  29  90 NW6       29.78R FOG     WCI  26
PLATTEVILLE    CLOUDY    32  32 100 NW8       29.74R WCI  25
$$

WIZ056-057-062-063-064-067-068-112200-
SOUTH CENTRAL WISCONSIN

CITY           SKY/WX    TMP DP  RH WIND       PRES   REMARKS
REEDSBURG      CLOUDY    31  28  85 N5        29.74R WCI  27
BARABOO/DELLS  CLOUDY    31  26  78 N9        29.74R WCI  23
LONE ROCK      CLOUDY    31  29  92 W8        29.76R FOG     WCI  23
MINERAL POINT  LGT SNOW  32  32 100 NW6       29.73R WCI  26
MADISON        LGT SNOW  32  26  78 NW7       29.72R WCI  26
MIDDLETON      CLOUDY    32  29  90 NW10      29.73R WCI  24
WATERTOWN      CLOUDY    32  28  84 W5        29.71R WCI  27
MONROE         CLOUDY    34  27  75 NW8       29.70R WCI  27
JANESVILLE     CLOUDY    36  27  69 NW9       29.70R WCI  29
$$

WIZ051-052-058>065-066-070>072-112200-
SOUTHEAST WISCONSIN

CITY           SKY/WX    TMP DP  RH WIND       PRES   REMARKS
MILWAUKEE      CLOUDY    34  29  82 CALM      29.70S
WAUKESHA       CLOUDY    30  25  80 SW5       29.71R WCI  25
MILWAUKEE/TIMM CLOUDY    32  23  69 CALM      29.70S
RACINE         CLOUDY    34  29  82 S3        29.71R
BURLINGTON     LGT SNOW  39  39 100 CALM      29.70R
KENOSHA        LGT SNOW  33  27  78 CALM      29.69S
FOND DU LAC    MIX PCPN  32  24  72 NW10      29.72R WCI  24
SHEBOYGAN      CLOUDY    30  25  81 NW3       29.71R
WEST BEND      CLOUDY    32  27  80 NW5       29.70R WCI  27
JUNEAU         CLOUDY    31  25  77 W3        29.72R
$$

LSZ147-162-112200-
LAKE SUPERIOR

STATION/POSITION TIME  TEMP    WIND        PRES    WAVE
                       AIR SEA DIR/SP/G            HT/PER
                 (UTC) (F)     (DEG/KT/KT) (MB)    (FT/S)
DEVILS ISLAND    2100   24     340/ 25/ 31 1013.5R
SAXON HARBOR     2030   29                 1010.5R
$$

LMZ867-665-643>646-112200-
LAKE MICHIGAN

STATION/POSITION TIME  TEMP    WIND        PRES    WAVE
                       AIR SEA DIR/SP/G            HT/PER
                 (UTC) (F)     (DEG/KT/KT) (MB)    (FT/S)
NORTHPORT PIER   2040   27     260/  3/  6 1006.4S
KEWAUNEE LAKESHO 2054   28     290/  6/  9 1005.9R
SHEBOYGAN LAKESH 2100   32     290/  7/  8 1007.0R
PORT WASHINGTON  2030   34     190/  2/  5 1006.8F
MILWAUKEE LAKESH 2100   33     250/  5/  6   N/A
KENOSHA   LAKESH 2100   34     230/  2/  3 1006.1
$$

TC  - TEMPERATURE IN CELSIUS
VSB - VISIBILITY IN STATUTE MILES
WCI - WIND CHILL INDEX
HX  - HEAT INDEX





USA.gov is the U.S. government's official web portal to all federal, state and local government web resources and services.